Location: Epalinges
(46.5518°N, 6.6683°E)
Time: 19:59:53
(UTC+00:00)

ATLAS 5 CENTAUR R/B - Pass Details

Date: 20 June 2021
Orbit: 510 x 1148 km, 63.4° (Epoch: 28 July)

Event Time Altitude Azimuth Distance (km) Brightness Sun altitude
Exits shadow 00:47:52 24° 139° (SE) 1,159 2.7 -18.1°
Maximum altitude 00:48:48 26° 116° (ESE) 1,104 2.7 -18.0°
Drops below altitude 10° 00:52:21 10° 59° (ENE) 1,926 4.8 -17.9°
Sets 00:55:01 0° 48° (NE) 2,929 6.1 -17.7°
